Weather History for Louisville Bowman, KY

Change the Weather History Date:

Sunday, May 26, 2013

  Actual Average Record
Temperature  
Mean Temperature 65 °F 69 °F  
Max Temperature 74 °F 79 °F 94 °F (1953)
Min Temperature 55 °F 59 °F 40 °F (1979)
Degree Days  
Heating Degree Days 0 1  
Month to date heating degree days 66 69  
Since 1 July heating degree days 4329 4260  
Cooling Degree Days 0 5  
Month to date cooling degree days 89 83  
Year to date cooling degree days 126 117  
Growing Degree Days 14 (Base 50)    
Moisture  
Dew Point 50 °F    
Average Humidity 69    
Maximum Humidity 93    
Minimum Humidity 44    
Precipitation  
Precipitation 0.02 in 0.14 in 2.09 in (1973)
Month to date precipitation 3.52 4.37  
Year to date precipitation 18.11 19.17  
Sea Level Pressure  
Sea Level Pressure 30.24 in    
Wind  
Wind Speed 4 mph (East)    
Max Wind Speed 10 mph    
Max Gust Speed 15 mph    
Visibility 10 miles    
Events Rain    
T = Trace of Precipitation, MM = Missing Value Source: NWS Daily Summary

Daily Weather History Graph

Daily Weather History Graph

Search for Another Location

Airport:

Trip Planner

Search our weather history database for the weather conditions in past years. The results will help you decide how hot, cold, wet, or windy it might be!

Date:

Astronomy

May. 26, 2013 Rise Set
Actual Time 6:23 AM EDT 8:56 PM EDT
Civil Twilight 5:53 AM EDT 9:26 PM EDT
Nautical Twilight 5:15 AM EDT 10:04 PM EDT
Astronomical Twilight 4:33 AM EDT 10:47 PM EDT
Moon 10:43 PM EDT 7:52 AM EDT
Length of Visible Light 15h 33m
Length of Day
14h 32m
Waning Gibbous, 97% of the Moon is Illuminated
May 26
Waning Gibbous
May 31
Last Quarter
Jun 8
New
Jun 16
First Quarter
Jun 23
Full

Hourly Weather History & Observations

Time (EDT) Temp. Dew Point Humidity Pressure Visibility Wind Dir Wind Speed Gust Speed Precip Events Conditions
12:53 AM 57.0 °F 51.1 °F 81% 30.27 in 10.0 mi NNE 5.8 mph - 0.02 in Rain Light Rain
1:53 AM 57.9 °F 50.0 °F 75% 30.27 in 10.0 mi Calm Calm - 0.00 in   Overcast
2:53 AM 57.9 °F 50.0 °F 75% 30.27 in 10.0 mi NE 5.8 mph - N/A   Overcast
3:53 AM 55.9 °F 52.0 °F 87% 30.27 in 10.0 mi Calm Calm - 0.02 in   Overcast
4:53 AM 55.0 °F 53.1 °F 93% 30.27 in 10.0 mi Calm Calm - 0.00 in   Overcast
5:53 AM 55.9 °F 53.1 °F 90% 30.26 in 10.0 mi Calm Calm - N/A   Overcast
6:53 AM 57.0 °F 52.0 °F 83% 30.28 in 10.0 mi Calm Calm - N/A   Overcast
7:53 AM 57.0 °F 52.0 °F 83% 30.28 in 10.0 mi Calm Calm - N/A   Overcast
8:53 AM 57.9 °F 51.1 °F 78% 30.28 in 10.0 mi ESE 3.5 mph - N/A   Overcast
9:53 AM 61.0 °F 48.0 °F 62% 30.29 in 10.0 mi SE 5.8 mph - N/A   Overcast
10:53 AM 62.1 °F 46.9 °F 58% 30.29 in 10.0 mi East 4.6 mph - N/A   Overcast
11:53 AM 64.0 °F 48.0 °F 56% 30.30 in 10.0 mi ESE 5.8 mph - N/A   Overcast
12:53 PM 66.0 °F 48.9 °F 54% 30.29 in 10.0 mi Calm Calm - N/A   Overcast
1:53 PM 68.0 °F 48.0 °F 49% 30.27 in 10.0 mi Variable 6.9 mph - N/A   Mostly Cloudy
2:53 PM 70.0 °F 48.0 °F 46% 30.26 in 10.0 mi ENE 3.5 mph - N/A   Clear
3:53 PM 72.0 °F 50.0 °F 46% 30.24 in 10.0 mi ENE 5.8 mph - N/A   Clear
4:53 PM 72.0 °F 48.9 °F 44% 30.23 in 10.0 mi NE 4.6 mph - N/A   Partly Cloudy
5:53 PM 73.9 °F 50.0 °F 43% 30.21 in 10.0 mi NNE 4.6 mph - N/A   Clear
6:53 PM 73.0 °F 51.1 °F 46% 30.17 in 10.0 mi East 5.8 mph - N/A   Clear
7:53 PM 72.0 °F 51.1 °F 48% 30.17 in 10.0 mi Variable 3.5 mph - N/A   Clear
8:53 PM 71.1 °F 51.1 °F 49% 30.17 in 10.0 mi East 3.5 mph - N/A   Mostly Cloudy
9:53 PM 69.1 °F 51.1 °F 53% 30.18 in 10.0 mi East 3.5 mph - N/A   Mostly Cloudy
10:53 PM 68.0 °F 52.0 °F 56% 30.19 in 10.0 mi East 5.8 mph - N/A   Overcast
11:53 PM 66.9 °F 51.1 °F 57% 30.16 in 10.0 mi ESE 4.6 mph - N/A   Mostly Cloudy